CYBB

Pelly Bay  Airport

Pelly Bay, Canada
Issued Wind Visibility Ceiling Temperature Dew Point Humidity Barometer
Nov-23
00:00 UTC
090°
7 KTS
15 miles Broken
2,500' AGL
-6° C
21° F
-8° C
18° F
86% 29.48" Hg
998.6 hPa
MVFR
Nov-22
23:51 UTC
100°
3 KTS
15 miles Broken
2,500' AGL
-7° C
19° F
-9° C
16° F
86% 29.47" Hg
998.4 hPa
MVFR
Nov-22
23:00 UTC
100°
10 KTS
15 miles Broken
1,300' AGL
-5° C
23° F
-7° C
19° F
86% 29.47" Hg
998.1 hPa
MVFR
Nov-22
22:11 UTC
110°
14 KTS
15 miles Broken
1,200' AGL
-5° C
23° F
-8° C
18° F
80% 29.44" Hg
997.4 hPa
MVFR
Nov-22
21:00 UTC
110°
21 KTS
Gust 26 KTS
15 miles Broken
900' AGL
-4° C
25° F
-6° C
21° F
86% 29.39" Hg
995.6 hPa
IFR
Nov-22
20:28 UTC
120°
18 KTS
Gust 25 KTS
10 miles Broken
1,000' AGL
-4° C
25° F
-5° C
23° F
93% 29.37" Hg
994.8 hPa
MVFR
Nov-22
20:00 UTC
120°
26 KTS
Gust 32 KTS
5 miles Broken
700' AGL
-4° C
25° F
-5° C
23° F
93% 29.34" Hg
993.8 hPa
IFR
Nov-22
19:43 UTC
120°
24 KTS
Gust 33 KTS
6 miles Broken
600' AGL
-4° C
25° F
-5° C
23° F
93% 29.32" Hg
993.3 hPa
IFR
Nov-22
19:00 UTC
120°
26 KTS
1 miles Broken
1,000' AGL
-3° C
27° F
-5° C
23° F
86% 29.29" Hg
992.1 hPa
IFR
Nov-22
18:31 UTC
120°
23 KTS
Gust 30 KTS
1 miles Broken
2,000' AGL
-3° C
27° F
-5° C
23° F
86% 29.27" Hg
991.6 hPa
IFR
Nov-22
18:00 UTC
130°
24 KTS
Gust 32 KTS
3/4 miles Broken
1,000' AGL
-4° C
25° F
-5° C
23° F
93% 29.23" Hg
990.2 hPa
LIFR
Nov-22
17:27 UTC
130°
29 KTS
Gust 37 KTS
1/2 miles Vertical visibility
500' AGL
-3° C
27° F
-5° C
23° F
86% 29.2" Hg
989.1 hPa
LIFR
Nov-22
17:00 UTC
140°
29 KTS
Gust 36 KTS
1/38 miles Vertical visibility
500' AGL
-3° C
27° F
-4° C
25° F
93% 29.16" Hg
987.8 hPa
LIFR
Nov-22
16:23 UTC
130°
30 KTS
Gust 38 KTS
1/4 miles Vertical visibility
400' AGL
-2° C
28° F
-4° C
25° F
86% 29.11" Hg
986.2 hPa
LIFR
Nov-22
16:04 UTC
130°
33 KTS
Gust 38 KTS
1/2 miles Vertical visibility
500' AGL
-2° C
28° F
-3° C
27° F
93% 29.09" Hg
985.4 hPa
LIFR
Nov-22
15:30 UTC
120°
26 KTS
1 miles Vertical visibility
600' AGL
-1° C
30° F
-2° C
28° F
93% 29.07" Hg
984.7 hPa
LIFR
Nov-22
15:04 UTC
100°
24 KTS
Gust 29 KTS
1 1/4 miles Overcast
500' AGL
-1° C
30° F
-2° C
28° F
93% 29.06" Hg
984.4 hPa
IFR
Nov-22
14:38 UTC
090°
22 KTS
4 miles Broken
1,000' AGL
-1° C
30° F
-2° C
28° F
93% 29.05" Hg
983.9 hPa
MVFR
Nov-22
14:00 UTC
080°
20 KTS
4 miles Broken
2,500' AGL
-2° C
28° F
-3° C
27° F
93% 29.06" Hg
984.3 hPa
MVFR
Nov-22
13:00 UTC
070°
18 KTS
2 1/4 miles Broken
1,200' AGL
-2° C
28° F
-3° C
27° F
93% 29.07" Hg
984.5 hPa
IFR